Location: Franzen
(48.6167°N, 15.3833°E)
Time: 13:39:14
(UTC+00:00)

COSMOS 2455 - Pass Details

Date: 22 April 2021
Orbit: 902 x 907 km, 67.1° (Epoch: 16 May)

Event Time Altitude Azimuth Distance (km) Brightness Sun altitude
Rises 19:40:54 0° 191° (SSW) 3,516 5.6 -15.2°
Reaches altitude 10° 19:43:29 10° 186° (S) 2,579 4.9 -15.5°
Maximum altitude 19:49:09 46° 115° (ESE) 1,205 3.1 -16.2°
Drops below altitude 10° 19:54:51 10° 44° (NE) 2,598 5.2 -16.9°
Sets 19:57:27 0° 39° (NE) 3,544 6.0 -17.2°
